Skip Page Navigation
NASA JPL Caltech
NASA Logo - Jet Propulsion Laboratory + View the NASA Portal
+ Center for Near-Earth Object Studies
JPL Home Earth Solar System Stars & Galaxies Technology
JPL Solar System Dynamics
BODIES ORBITS EPHEMERIDES TOOLS PHYSICAL DATA DISCOVERY FAQ SITE MAP
JPL Small-Body Database Browser
Search: [ help ]  
441283 (2007 XL16)
Classification: Main-belt Asteroid          SPK-ID: 2441283
Ephemeris | Orbit Diagram | Orbital Elements | Mission Design | Physical Parameters | Discovery Circumstances ]

[ show orbit diagram ]
Orbital Elements at Epoch 2459000.5 (2020-May-31.0) TDB
Reference: JPL 12 (heliocentric ecliptic J2000)
 Element Value Uncertainty (1-sigma)   Units 
e .2079984495332705 1.1687e-07  
a 2.658270248220837 5.027e-08 au
q 2.10535415815048 3.26e-07 au
i 6.885058885644828 1.2309e-05 deg
node 48.01944156827357 9.1389e-05 deg
peri 326.6040252373722 9.5701e-05 deg
M 359.0761196883805 3.8065e-05 deg
tp 2459004.562658653032
(2020-Jun-04.06265865)
0.00016748 TDB
period 1583.059078862232
4.33
4.4905e-05
1.229e-07
d
yr
n .2274078111214506 6.4507e-09 deg/d
Q 3.211186338291193 6.0726e-08 au
  Orbit Determination Parameters
   # obs. used (total)      139  
   data-arc span      5707 days (15.62 yr)  
   first obs. used      2002-08-30  
   last obs. used      2018-04-15  
   planetary ephem.      DE431  
   SB-pert. ephem.      SB431-N16  
   condition code      0  
   norm. resid. RMS      .64987  
   source      ORB  
   producer      Otto Matic  
   solution date      2019-Jul-14 10:01:23  

Additional Information
 Earth MOID = 1.11086 au 
 Jupiter MOID = 2.25746 au 
 T_jup = 3.346 
[ show covariance matrix ]

Ephemeris | Orbit Diagram | Orbital Elements | Mission Design | Physical Parameters | Discovery Circumstances ]

Physical Parameter Table
Parameter Symbol Value Units Sigma Reference Notes
absolute magnitude H 16.9   n/a MPO258357  

441283 (2007 XL16)          Discovered 2007-Aug-10 by Spacewatch at Kitt Peak
Reference: Last Updated: 2015-09-02

Alternate Designations
 2007 XL16 = 2011 TH8 
Ephemeris | Orbit Diagram | Orbital Elements | Mission Design | Physical Parameters | Discovery Circumstances ]
ABOUT SSD CREDITS/AWARDS PRIVACY/COPYRIGHT GLOSSARY LINKS
FirstGov 2020-Jul-05 14:44 UT
(server date/time)  
NASA Home Page
Site Manager:   Ryan S. Park
Webmaster  Alan B. Chamberlin